Weather History for KONZ - February, 2013

Change the Weather History Date:

Thursday, February 14, 2013

  Actual Average (KDTW) Record (KDTW)
Temperature  
Mean Temperature 34 °F 28 °F  
Max Temperature 41 °F 35 °F 57 °F (1918)
Min Temperature 28 °F 21 °F -15 °F (1905)
Degree Days  
Heating Degree Days 30 37  
Month to date heating degree days 536  
Since 1 July heating degree days 4056  
Cooling Degree Days 0 0  
Month to date cooling degree days 0  
Year to date cooling degree days 0  
Moisture  
Dew Point 30 °F    
Average Humidity 83    
Maximum Humidity 93    
Minimum Humidity 70    
Precipitation  
Precipitation 0.00 in 0.07 in 1.92 in (1950)
Month to date precipitation 0.96  
Year to date precipitation 2.92  
Snow  
Snow 0.00 in 0.30 in 5.40 in (1991)
Month to date snowfall 5.1  
Since 1 July snowfall 28.8  
Snow Depth -    
Sea Level Pressure  
Sea Level Pressure 29.75 in    
Wind  
Wind Speed 10 mph (SSW)    
Max Wind Speed 18 mph    
Max Gust Speed 29 mph    
Visibility 6 miles    
Events Rain , Snow    
T = Trace of Precipitation, MM = Missing Value Source: NWS Daily Summary

Daily Weather History Graph

Daily Weather History Graph

Search for Another Location

Airport or City:

Trip Planner

Search our weather history database for the weather conditions in past years. The results will help you decide how hot, cold, wet, or windy it might be!

Date:

Astronomy

Feb. 14, 2013 Rise Set
Actual Time 7:29 AM EST 6:04 PM EST
Civil Twilight 7:01 AM EST 6:33 PM EST
Nautical Twilight 6:28 AM EST 7:06 PM EST
Astronomical Twilight 5:55 AM EST 7:38 PM EST
Moon 9:25 AM EST (2/14) 11:12 PM EST (2/14)
Length of Visible Light 11h 32m
Length of Day
10h 34m
Waxing Crescent, 21% of the Moon is Illuminated
Feb 14
Waxing Crescent
Feb 17
First Quarter
Feb 25
Full
Mar 4
Last Quarter
Mar 11
New

Hourly Weather History & Observations

Time (EST) Temp. Windchill Dew Point Humidity Pressure Visibility Wind Dir Wind Speed Gust Speed Precip Events Conditions
12:14 AM 30.2 °F 21.3 °F 26.6 °F 86% 29.78 in 5.0 mi South 10.4 mph - N/A   Clear
12:34 AM 30.2 °F 21.3 °F 26.6 °F 86% 29.78 in 5.0 mi South 10.4 mph - N/A   Clear
12:54 AM 30.2 °F 21.3 °F 26.6 °F 86% 29.78 in 5.0 mi South 10.4 mph - N/A   Scattered Clouds
1:14 AM 30.2 °F 21.9 °F 26.6 °F 86% 29.78 in 5.0 mi South 9.2 mph - N/A   Scattered Clouds
1:34 AM 30.2 °F 21.9 °F 26.6 °F 86% 29.78 in 5.0 mi South 9.2 mph - N/A   Scattered Clouds
1:54 AM 30.2 °F 21.9 °F 26.6 °F 86% 29.77 in 5.0 mi South 9.2 mph - N/A   Mostly Cloudy
2:14 AM 30.2 °F 23.4 °F 26.6 °F 86% 29.77 in 5.0 mi South 6.9 mph - N/A   Mostly Cloudy
2:34 AM 30.2 °F 23.4 °F 26.6 °F 86% 29.77 in 5.0 mi South 6.9 mph - N/A   Scattered Clouds
2:54 AM 30.2 °F 24.3 °F 26.6 °F 86% 29.77 in 5.0 mi South 5.8 mph - N/A   Clear
3:14 AM 30.2 °F 25.4 °F 26.6 °F 86% 29.76 in 5.0 mi South 4.6 mph - N/A   Clear
3:34 AM 28.4 °F 22.2 °F 26.6 °F 93% 29.76 in 5.0 mi South 5.8 mph - N/A   Clear
3:54 AM 30.2 °F 24.3 °F 26.6 °F 86% 29.76 in 5.0 mi SSW 5.8 mph - N/A   Clear
4:14 AM 30.2 °F 25.4 °F 26.6 °F 86% 29.76 in 7.0 mi SSW 4.6 mph - N/A   Clear
4:34 AM 32.0 °F 24.8 °F 28.4 °F 87% 29.76 in 7.0 mi SSW 8.1 mph - N/A   Clear
4:54 AM 32.0 °F 25.6 °F 26.6 °F 80% 29.76 in 7.0 mi SSW 6.9 mph - N/A   Clear
5:14 AM 30.2 °F 24.3 °F 26.6 °F 86% 29.76 in 7.0 mi SSW 5.8 mph - N/A   Clear
5:34 AM 32.0 °F 27.5 °F 26.6 °F 80% 29.76 in 7.0 mi SSW 4.6 mph - N/A   Scattered Clouds
5:54 AM 32.0 °F 27.5 °F 28.4 °F 87% 29.76 in 7.0 mi SSW 4.6 mph - N/A   Mostly Cloudy
6:14 AM 32.0 °F 24.8 °F 28.4 °F 87% 29.76 in 7.0 mi SSW 8.1 mph - N/A   Mostly Cloudy
6:34 AM 33.8 °F 27.7 °F 28.4 °F 81% 29.76 in 7.0 mi SSW 6.9 mph - N/A   Overcast
6:54 AM 33.8 °F 27.0 °F 28.4 °F 81% 29.76 in 7.0 mi SSW 8.1 mph - N/A   Overcast
7:14 AM 33.8 °F 27.0 °F 28.4 °F 81% 29.76 in 7.0 mi SSW 8.1 mph - N/A   Overcast
7:34 AM 33.8 °F 27.7 °F 28.4 °F 81% 29.77 in 5.0 mi South 6.9 mph - N/A   Overcast
7:54 AM 33.8 °F 27.0 °F 30.2 °F 87% 29.76 in 4.0 mi South 8.1 mph - N/A   Overcast
8:14 AM 33.8 °F 27.7 °F 30.2 °F 87% 29.77 in 4.0 mi SSW 6.9 mph - N/A   Overcast
8:34 AM 33.8 °F 27.0 °F 30.2 °F 87% 29.78 in 5.0 mi SSW 8.1 mph - N/A   Overcast
8:54 AM 35.6 °F 28.0 °F 30.2 °F 81% 29.78 in 5.0 mi SSW 10.4 mph - N/A   Overcast
9:14 AM 35.6 °F 28.6 °F 30.2 °F 81% 29.77 in 5.0 mi SSW 9.2 mph - N/A   Overcast
9:34 AM 35.6 °F 28.0 °F 30.2 °F 81% 29.78 in 5.0 mi SSW 10.4 mph - N/A   Overcast
9:54 AM 35.6 °F 27.5 °F 30.2 °F 81% 29.77 in 5.0 mi SSW 11.5 mph - N/A   Scattered Clouds
10:14 AM 35.6 °F 27.1 °F 32.0 °F 87% 29.77 in 5.0 mi SSW 12.7 mph - N/A   Scattered Clouds
10:34 AM 35.6 °F 26.2 °F 32.0 °F 87% 29.76 in 5.0 mi SSW 15.0 mph - N/A   Mostly Cloudy
10:54 AM 35.6 °F 26.2 °F 32.0 °F 87% 29.76 in 4.0 mi South 15.0 mph - N/A   Mostly Cloudy
11:14 AM 35.6 °F 27.1 °F 32.0 °F 87% 29.75 in 3.0 mi South 12.7 mph - N/A   Overcast
11:34 AM 35.6 °F 26.6 °F 32.0 °F 87% 29.75 in 2.0 mi South 13.8 mph - N/A Rain Light Rain
11:54 AM 35.6 °F 28.0 °F 32.0 °F 87% 29.74 in 1.8 mi South 10.4 mph - N/A Snow Light Snow
12:14 PM 35.6 °F 26.6 °F 33.8 °F 93% 29.73 in 2.5 mi SSE 13.8 mph - N/A   Light Drizzle
12:34 PM 35.6 °F 27.1 °F 33.8 °F 93% 29.73 in 3.0 mi South 12.7 mph - N/A   Mostly Cloudy
12:54 PM 35.6 °F 27.1 °F 33.8 °F 93% 29.72 in 4.0 mi South 12.7 mph - N/A   Scattered Clouds
1:14 PM 35.6 °F 26.2 °F 33.8 °F 93% 29.71 in 4.0 mi South 15.0 mph - N/A   Mostly Cloudy
1:34 PM 35.6 °F 26.2 °F 33.8 °F 93% 29.71 in 4.0 mi South 15.0 mph - N/A   Overcast
1:54 PM 35.6 °F 26.6 °F 33.8 °F 93% 29.70 in 4.0 mi South 13.8 mph - N/A   Overcast
2:14 PM 35.6 °F 26.6 °F 32.0 °F 87% 29.70 in 4.0 mi South 13.8 mph - N/A   Overcast
2:34 PM 35.6 °F 26.6 °F 33.8 °F 93% 29.70 in 4.0 mi South 13.8 mph - N/A Rain Light Rain
2:54 PM 37.4 °F 27.5 °F 33.8 °F 87% 29.69 in 7.0 mi South 18.4 mph - N/A   Overcast
3:14 PM 37.4 °F 28.2 °F 33.8 °F 87% 29.69 in 7.0 mi SSW 16.1 mph 20.7 mph N/A   Overcast
3:34 PM 37.4 °F 28.2 °F 33.8 °F 87% 29.69 in 7.0 mi SSW 16.1 mph - N/A   Overcast
3:54 PM 37.4 °F 27.8 °F 33.8 °F 87% 29.69 in 5.0 mi SSW 17.3 mph - N/A Rain Light Rain
4:14 PM 37.4 °F 28.2 °F 33.8 °F 87% 29.69 in 7.0 mi SSW 16.1 mph 23.0 mph N/A   Overcast
4:34 PM 37.4 °F 29.3 °F 33.8 °F 87% 29.69 in 5.0 mi SSW 12.7 mph - N/A   Light Drizzle
4:54 PM 37.4 °F 28.9 °F 33.8 °F 87% 29.69 in 5.0 mi South 13.8 mph - N/A Rain Rain
5:14 PM 37.4 °F 30.3 °F 35.6 °F 93% 29.70 in 5.0 mi SSW 10.4 mph - N/A Rain Light Rain
5:34 PM 39.2 °F 32.5 °F 35.6 °F 87% 29.70 in 10.0 mi SW 10.4 mph - N/A   Overcast
5:54 PM 39.2 °F 32.5 °F 35.6 °F 87% 29.71 in 10.0 mi SW 10.4 mph - N/A   Overcast
6:14 PM 41.0 °F 32.2 °F 33.8 °F 76% 29.72 in 10.0 mi WSW 18.4 mph 24.2 mph N/A   Overcast
6:34 PM 39.2 °F 30.5 °F 30.2 °F 70% 29.74 in 10.0 mi WSW 16.1 mph 25.3 mph N/A   Overcast
6:54 PM 39.2 °F 32.0 °F 30.2 °F 70% 29.74 in 10.0 mi WSW 11.5 mph 18.4 mph N/A   Overcast
7:15 PM 39.2 °F 32.0 °F 30.2 °F 70% 29.75 in 10.0 mi SW 11.5 mph 19.6 mph N/A   Overcast
7:34 PM 39.2 °F 32.0 °F 30.2 °F 70% 29.76 in 10.0 mi SW 11.5 mph 20.7 mph N/A   Overcast
7:54 PM 39.2 °F 30.8 °F 30.2 °F 70% 29.76 in 10.0 mi SW 15.0 mph 18.4 mph N/A   Overcast
8:14 PM 39.2 °F 31.6 °F 30.2 °F 70% 29.76 in 10.0 mi WSW 12.7 mph 20.7 mph N/A   Overcast
8:34 PM 37.4 °F 30.3 °F 30.2 °F 75% 29.77 in 10.0 mi WSW 10.4 mph - N/A   Overcast
8:54 PM 37.4 °F 27.8 °F 30.2 °F 75% 29.77 in 10.0 mi WSW 17.3 mph 21.9 mph N/A   Overcast
9:14 PM 37.4 °F 28.2 °F 28.4 °F 70% 29.79 in 10.0 mi WSW 16.1 mph 28.8 mph N/A   Overcast
9:34 PM 37.4 °F 28.2 °F 28.4 °F 70% 29.80 in 10.0 mi WSW 16.1 mph 20.7 mph N/A   Overcast
9:54 PM 37.4 °F 28.5 °F 28.4 °F 70% 29.80 in 10.0 mi WSW 15.0 mph 21.9 mph N/A   Overcast
10:14 PM 37.4 °F 28.9 °F 28.4 °F 70% 29.81 in 10.0 mi West 13.8 mph 23.0 mph N/A   Overcast
10:34 PM 35.6 °F 27.1 °F 28.4 °F 75% 29.81 in 10.0 mi WSW 12.7 mph 21.9 mph N/A   Mostly Cloudy
10:54 PM 35.6 °F 28.0 °F 26.6 °F 70% 29.81 in 10.0 mi WSW 10.4 mph 23.0 mph N/A   Overcast
11:14 PM 35.6 °F 26.6 °F 26.6 °F 70% 29.82 in 10.0 mi West 13.8 mph 25.3 mph N/A   Overcast
11:34 PM 35.6 °F 25.9 °F 26.6 °F 70% 29.82 in 10.0 mi West 16.1 mph 25.3 mph N/A   Overcast
11:54 PM 35.6 °F 27.1 °F 26.6 °F 70% 29.83 in 10.0 mi WSW 12.7 mph 21.9 mph N/A   Overcast